Terug naar catalogus

WESTFORD NEEDLES

LostPO
NORAD 3244·DEBRIS·🇺🇸 United States

Gelanceerd May 9, 1963 vanaf Vandenberg Space Force Base

Loading…

Volgende Passages (komende 24 uur)

TLE

VerouderdSource: Space-Track

Epoch: Jan 15, 2020, 05:06 UTC

1  3244U 63014BJ  20015.21275615  .00000003  00000-0  10000-3 0  9991
2  3244  87.3307  58.3320 0035998 318.3653  84.1744  8.65177349 15102

Volg WESTFORD NEEDLES in realtime met AllMySat

Download on the App Store